Weather 🌤️

Recent data

Temperatures

Wind

Pressure

Humidity & Precipitation

Last data
obsTime qcStatus tempAvg heatindexAvg windspeedAvg windgustAvg winddirAvg pressureAvg humidityAvg precipRate precipTotal
2026-09-05 07:59:48 0 20.3 20.3 0.5 1.8 181 1001.86 52 0 0
2026-09-05 07:54:57 0 20.2 20.2 0.1 1.1 204 1002.03 52 0 0
2026-09-05 07:49:54 0 20.2 20.2 0 1.1 161 1001.86 52 0 0
2026-09-05 07:44:49 0 20.2 20.2 0 1.1 160 1001.86 51.7 0 0
2026-09-05 07:39:49 0 20.2 20.2 0.5 1.1 160 1001.86 51 0 0
2026-09-05 07:34:57 0 20.3 20.3 0.3 2 158 1001.69 51 0 0
2026-09-05 07:29:57 0 20.3 20.3 0 2.1 162 1001.69 51 0 0
2026-09-05 07:24:49 0 20.3 20.3 0 2.1 161 1001.86 51 0 0
2026-09-05 07:19:57 0 20.5 20.5 0.2 2.1 157 1001.53 50.8 0 0
2026-09-05 07:14:49 0 20.6 20.6 0.4 2.1 149 1001.69 50 0 0
2026-09-05 07:09:57 0 20.8 20.8 0.1 2.1 146 1001.86 50 0 0
2026-09-05 07:04:53 0 20.8 20.8 0 2.1 146 1001.69 50 0 0

Hourly data

Temperatures

Wind

Pressure

Humidity & Precipitation

Last data
obsTime qcStatus tempAvg heatindexAvg windspeedAvg windgustAvg winddirAvg pressureAvg humidityAvg precipRate precipTotal
2026-09-05 06:59:51 0 21.2 20.8 0.1 1.9 148 1001.36 48.9 0 0
2026-09-05 05:59:50 0 22.1 21.6 0 1.9 186 1001.36 46.4 0 0
2026-09-05 04:59:49 0 22.9 22.4 0.8 4.5 230 1000.68 44.4 0 0
2026-09-05 03:59:49 0 23.5 23 1.1 5.5 222 1000.34 43.2 0 0
2026-09-05 02:59:57 0 24.2 23.8 0.9 3.8 217 1000.85 42.3 0 0
2026-09-05 01:59:58 0 25.1 24.7 0.6 3.8 225 1000.85 40.8 0 0
2026-09-05 00:59:52 0 26 25.6 0.8 4.8 219 1000.17 38.7 0 0
2026-09-04 23:59:50 0 26.9 26.5 2.4 7.6 223 1000 36.7 0 0
2026-09-04 22:59:51 0 28.2 27.5 2.6 11.4 225 999.49 34.9 0 0
2026-09-04 21:59:51 0 29.2 28.3 3.1 8 223 998.65 33.8 0 0
2026-09-04 20:59:51 1 30.4 29.4 1.7 13.2 226 997.8 32.3 0 0
2026-09-04 19:59:50 1 31.8 30.9 8.4 18.9 231 996.95 31.9 0 0
2026-09-04 18:59:54 1 32.6 32.1 10.7 20.1 236 996.62 33.8 0 0
2026-09-04 17:59:51 1 32.5 32.1 9 20.7 236 996.44 35 0 0
2026-09-04 16:59:51 0 31.1 30.7 6.7 15.3 226 996.62 36.1 0 0
2026-09-04 15:59:50 0 30.8 30.7 2.6 6.8 206 997.46 39.6 0 0
2026-09-04 14:59:51 1 30 29.9 2.6 7.4 200 997.97 41 0 0
2026-09-04 13:59:51 1 28.7 28.6 3.2 6.7 195 998.48 43.6 0 0
2026-09-04 12:59:51 0 27.2 27.3 2.1 6.1 191 999.16 46.7 0 0
2026-09-04 11:59:51 1 25.2 25.1 1.7 4.9 180 999.83 51.5 0 0
2026-09-04 10:59:51 1 22.2 21.9 1.7 6.3 257 1000 56 0 0
2026-09-04 09:59:51 1 20.5 20.5 2.4 5.6 249 1000 57.9 0 0
2026-09-04 08:59:51 1 19.7 19.7 1 3.4 220 1000 58.4 0 0
2026-09-04 07:59:51 0 19.4 19.4 0.2 1.3 215 1000 57.9 0 0